Weather History for Highgate, VT

Change the Weather History Date:

Monday, December 31, 2012

  Actual Average (KPBG) Record (KPBG)
Temperature  
Mean Temperature 22 °F 20 °F  
Max Temperature 32 °F 29 °F 56 °F (1965)
Min Temperature 13 °F 10 °F -13 °F (1963)
Degree Days  
Heating Degree Days 42 46  
Month to date heating degree days 1252  
Since 1 July heating degree days 2886  
Moisture  
Dew Point 17 °F    
Average Humidity 80    
Maximum Humidity 90    
Minimum Humidity 71    
Precipitation  
Precipitation 0.00 in - 1.29 in (1948)
Month to date precipitation  
Year to date precipitation  
Sea Level Pressure  
Sea Level Pressure 29.88 in    
Wind  
Wind Speed 4 mph (South)    
Max Wind Speed 10 mph    
Max Gust Speed 17 mph    
Visibility 9 miles    
Events Snow    
T = Trace of Precipitation, MM = Missing Value Source: NWS Daily Summary

Daily Weather History Graph

Daily Weather History Graph

Search for Another Location

Airport:

Trip Planner

Search our weather history database for the weather conditions in past years. The results will help you decide how hot, cold, wet, or windy it might be!

Date:

Astronomy

Dec. 31, 2012 Rise Set
Actual Time 7:30 AM EST 4:21 PM EST
Civil Twilight 6:56 AM EST 4:54 PM EST
Nautical Twilight 6:19 AM EST 5:31 PM EST
Astronomical Twilight 5:44 AM EST 6:07 PM EST
Moon 7:58 PM EST (12/31) 9:01 AM EST (12/31)
Length of Visible Light 9h 57m
Length of Day
8h 50m
Waning Gibbous, 90% of the Moon is Illuminated
Dec 31
Waning Gibbous
Jan 4
Last Quarter
Jan 11
New
Jan 18
First Quarter
Jan 26
Full

Hourly Weather History & Observations

Time (EST) Temp. Windchill Dew Point Humidity Pressure Visibility Wind Dir Wind Speed Gust Speed Precip Events Conditions
12:15 AM 13.6 °F 7.7 °F 5.9 °F 71% 30.09 in 10.0 mi WNW 3.5 mph - N/A   Overcast
12:35 AM 14.5 °F 8.8 °F 6.8 °F 71% 30.09 in 10.0 mi WNW 3.5 mph - N/A   Overcast
12:55 AM 14.5 °F 8.8 °F 7.3 °F 73% 30.09 in 10.0 mi WNW 3.5 mph - N/A   Overcast
1:15 AM 14.5 °F 7.1 °F 7.7 °F 74% 30.08 in 10.0 mi WNW 4.6 mph - N/A   Overcast
1:35 AM 14.5 °F 7.1 °F 8.1 °F 75% 30.08 in 10.0 mi WNW 4.6 mph - N/A   Overcast
1:55 AM 14.7 °F - 8.4 °F 76% 30.08 in 10.0 mi Calm Calm - N/A   Overcast
2:15 AM 14.9 °F - 8.6 °F 76% 30.08 in 10.0 mi Calm Calm - N/A   Overcast
2:35 AM 15.4 °F - 9.0 °F 76% 30.07 in 10.0 mi Calm Calm - N/A   Overcast
2:55 AM 14.5 °F - 9.0 °F 79% 30.07 in 10.0 mi Calm Calm - N/A   Overcast
3:15 AM 14.2 °F - 9.9 °F 83% 30.07 in 10.0 mi Calm Calm - N/A   Overcast
3:35 AM 14.5 °F - 10.0 °F 82% 30.06 in 10.0 mi Calm Calm - N/A   Overcast
3:55 AM 14.2 °F - 9.7 °F 82% 30.04 in 5.0 mi Calm Calm - N/A Snow Light Snow
4:15 AM 13.1 °F - 9.1 °F 84% 30.04 in 7.0 mi Calm Calm - N/A Snow Light Snow
4:35 AM 13.6 °F - 9.7 °F 84% 30.03 in 10.0 mi Calm Calm - N/A Snow Light Snow
4:55 AM 13.3 °F 7.3 °F 9.5 °F 85% 30.03 in 10.0 mi ESE 3.5 mph - N/A   Overcast
5:15 AM 14.5 °F - 10.8 °F 85% 30.02 in 10.0 mi Calm Calm - N/A   Overcast
5:35 AM 14.5 °F 8.8 °F 10.8 °F 85% 30.02 in 10.0 mi East 3.5 mph - N/A   Overcast
5:55 AM 14.5 °F - 10.8 °F 85% 30.02 in 10.0 mi Calm Calm - N/A Snow Light Snow
6:15 AM 14.5 °F 8.8 °F 10.8 °F 85% 30.02 in 7.0 mi East 3.5 mph - N/A Snow Light Snow
6:35 AM 14.5 °F - 10.9 °F 86% 30.02 in 7.0 mi Calm Calm - N/A Snow Light Snow
6:55 AM 14.5 °F - 10.8 °F 85% 30.01 in 7.0 mi Calm Calm - N/A Snow Light Snow
7:15 AM 14.5 °F 8.8 °F 10.9 °F 86% 30.00 in 7.0 mi ESE 3.5 mph - N/A Snow Light Snow
7:55 AM 14.5 °F 8.8 °F 11.1 °F 86% 30.00 in 7.0 mi SE 3.5 mph - N/A Snow Light Snow
8:35 AM 15.3 °F 9.6 °F 11.8 °F 86% 29.98 in 10.0 mi SE 3.5 mph - N/A   Overcast
9:15 AM 17.1 °F - 13.8 °F 87% 29.98 in 7.0 mi Calm Calm - N/A Snow Light Snow
9:35 AM 18.3 °F - 14.9 °F 86% 29.98 in 4.0 mi Calm Calm - N/A Snow Light Snow
9:55 AM 19.0 °F 12.3 °F 15.4 °F 86% 29.97 in 10.0 mi South 4.6 mph - N/A Snow Light Snow
10:15 AM 19.4 °F - 15.8 °F 86% 29.97 in 10.0 mi Calm Calm - N/A   Overcast
10:35 AM 20.3 °F - 16.2 °F 84% 29.95 in 10.0 mi Calm Calm - N/A   Overcast
10:55 AM 22.1 °F 17.4 °F 16.9 °F 80% 29.94 in 10.0 mi South 3.5 mph - N/A   Overcast
11:15 AM 23.4 °F 16.2 °F 17.1 °F 77% 29.93 in 10.0 mi South 5.8 mph - N/A   Overcast
11:35 AM 24.4 °F 18.6 °F 17.6 °F 75% 29.90 in 10.0 mi SE 4.6 mph - N/A   Overcast
11:55 AM 24.6 °F 17.7 °F 17.2 °F 74% 29.90 in 10.0 mi South 5.8 mph - N/A   Overcast
12:15 PM 24.8 °F 17.9 °F 17.2 °F 73% 29.90 in 10.0 mi SSW 5.8 mph - N/A   Overcast
12:35 PM 24.6 °F 17.7 °F 17.6 °F 75% 29.88 in 10.0 mi South 5.8 mph - N/A   Overcast
12:55 PM 24.6 °F 16.7 °F 18.3 °F 77% 29.86 in 10.0 mi South 6.9 mph - N/A Snow Light Snow
1:15 PM 26.1 °F 20.5 °F 20.3 °F 79% 29.84 in 10.0 mi South 4.6 mph - N/A Snow Light Snow
1:55 PM 27.1 °F 20.7 °F 20.7 °F 77% 29.83 in 10.0 mi South 5.8 mph - N/A   Overcast
2:15 PM 27.1 °F 20.7 °F 20.3 °F 75% 29.83 in 10.0 mi South 5.8 mph - N/A   Overcast
2:35 PM 27.1 °F 23.2 °F 20.3 °F 75% 29.82 in 10.0 mi SSW 3.5 mph - N/A   Overcast
2:55 PM 27.1 °F 19.7 °F 20.3 °F 75% 29.81 in 10.0 mi South 6.9 mph - N/A   Overcast
3:15 PM 27.1 °F 19.7 °F 20.8 °F 77% 29.81 in 10.0 mi South 6.9 mph - N/A   Overcast
3:35 PM 27.1 °F 20.7 °F 21.0 °F 78% 29.81 in 10.0 mi South 5.8 mph - N/A   Overcast
3:55 PM 27.1 °F 19.7 °F 21.2 °F 78% 29.79 in 10.0 mi South 6.9 mph - N/A   Overcast
4:15 PM 27.1 °F 19.7 °F 21.7 °F 80% 29.79 in 10.0 mi South 6.9 mph - N/A   Overcast
4:35 PM 27.1 °F 19.7 °F 21.7 °F 80% 29.78 in 10.0 mi South 6.9 mph - N/A   Overcast
4:55 PM 27.1 °F 19.7 °F 21.7 °F 80% 29.78 in 10.0 mi South 6.9 mph - N/A   Overcast
5:15 PM 27.1 °F 20.7 °F 21.9 °F 81% 29.78 in 10.0 mi South 5.8 mph - N/A   Overcast
5:35 PM 27.3 °F 19.1 °F 21.7 °F 80% 29.76 in 10.0 mi South 8.1 mph - N/A   Overcast
5:55 PM 27.7 °F 19.6 °F 22.1 °F 80% 29.76 in 10.0 mi South 8.1 mph - N/A   Overcast
6:15 PM 27.7 °F 20.4 °F 22.1 °F 80% 29.74 in 10.0 mi South 6.9 mph - N/A   Overcast
6:35 PM 27.7 °F 18.8 °F 22.1 °F 80% 29.74 in 10.0 mi South 9.2 mph 16.1 mph N/A   Overcast
6:55 PM 28.2 °F 20.2 °F 22.5 °F 79% 29.73 in 10.0 mi South 8.1 mph - N/A   Overcast
7:15 PM 28.0 °F 19.3 °F 22.1 °F 78% 29.72 in 10.0 mi South 9.2 mph - N/A   Overcast
7:35 PM 28.2 °F 20.2 °F 22.5 °F 79% 29.71 in 10.0 mi South 8.1 mph - N/A   Overcast
7:55 PM 28.9 °F 21.1 °F 22.5 °F 77% 29.70 in 10.0 mi South 8.1 mph - N/A   Overcast
8:15 PM 29.1 °F 20.0 °F 22.6 °F 77% 29.69 in 10.0 mi SSW 10.4 mph - N/A   Overcast
8:35 PM 29.7 °F 21.3 °F 23.0 °F 76% 29.68 in 10.0 mi SSW 9.2 mph - N/A   Overcast
8:55 PM 29.7 °F 22.0 °F 23.2 °F 77% 29.67 in 10.0 mi South 8.1 mph - N/A   Overcast
9:35 PM 31.5 °F 23.5 °F 25.2 °F 78% 29.66 in 10.0 mi SSW 9.2 mph 17.3 mph N/A   Overcast
9:55 PM 32.0 °F 24.8 °F 25.7 °F 78% 29.66 in 7.0 mi South 8.1 mph - N/A Snow Light Snow
10:15 PM 32.0 °F 24.8 °F 25.7 °F 78% 29.65 in 7.0 mi SSW 8.1 mph - N/A Snow Light Snow
10:35 PM 32.0 °F 26.4 °F 26.2 °F 79% 29.65 in 5.0 mi SSW 5.8 mph - N/A Snow Light Snow
10:55 PM 30.2 °F 23.4 °F 25.3 °F 82% 29.65 in 4.0 mi SW 6.9 mph - N/A Snow Light Snow
11:15 PM 30.0 °F 24.1 °F 25.9 °F 85% 29.65 in 4.0 mi SSW 5.8 mph - N/A Snow Light Snow
11:35 PM 32.0 °F 25.6 °F 28.9 °F 88% 29.64 in 2.5 mi SSW 6.9 mph - N/A Snow Light Snow
11:55 PM 30.2 °F 25.4 °F 27.7 °F 90% 29.64 in 5.0 mi SSW 4.6 mph - N/A Snow Light Snow